Weather History for Findlay, OH

Change the Weather History Date:

Saturday, September 21, 2013

  Actual Average Record
Temperature  
Mean Temperature 63 °F -  
Max Temperature 72 °F 70 °F 93 °F (2010)
Min Temperature 53 °F 52 °F 32 °F (1956)
Degree Days  
Heating Degree Days 2    
Growing Degree Days 13 (Base 50)    
Moisture  
Dew Point 58 °F    
Average Humidity 83    
Maximum Humidity 100    
Minimum Humidity 40    
Precipitation  
Precipitation 0.29 in - - ()
Sea Level Pressure  
Sea Level Pressure 29.74 in    
Wind  
Wind Speed 7 mph (WNW)    
Max Wind Speed 18 mph    
Max Gust Speed 24 mph    
Visibility 8 miles    
Events Rain    
Averages and records for this station are not official NWS values.
T = Trace of Precipitation, MM = Missing Value Source: NWS Daily Summary

Daily Weather History Graph

Daily Weather History Graph

Search for Another Location

Airport:

Trip Planner

Search our weather history database for the weather conditions in past years. The results will help you decide how hot, cold, wet, or windy it might be!

Date:

Astronomy

Sep. 21, 2013 Rise Set
Actual Time 7:21 AM EDT 7:33 PM EDT
Civil Twilight 6:53 AM EDT 8:00 PM EDT
Nautical Twilight 6:21 AM EDT 8:32 PM EDT
Astronomical Twilight 5:48 AM EDT 9:05 PM EDT
Moon 8:41 PM EDT (9/21) 9:40 AM EDT (9/21)
Length of Visible Light 13h 06m
Length of Day
12h 11m
Waning Gibbous, 94% of the Moon is Illuminated
Sep 21
Waning Gibbous
Sep 26
Last Quarter
Oct 4
New
Oct 11
First Quarter
Oct 18
Full

Hourly Weather History & Observations

Time (EDT) Temp. Dew Point Humidity Pressure Visibility Wind Dir Wind Speed Gust Speed Precip Events Conditions
12:53 AM 66.9 °F 66.0 °F 97% 29.74 in 7.0 mi SSW 5.8 mph - 0.04 in Rain Light Rain
1:06 AM 66.2 °F 66.2 °F 100% 29.76 in 7.0 mi SSW 4.6 mph - 0.01 in Rain Light Rain
1:23 AM 66.2 °F 66.2 °F 100% 29.76 in 6.0 mi SW 5.8 mph - 0.02 in Rain Light Rain
1:53 AM 66.9 °F 64.9 °F 93% 29.73 in 8.0 mi WNW 10.4 mph - 0.04 in Rain Light Rain
2:05 AM 66.2 °F 64.4 °F 94% 29.76 in 7.0 mi WNW 6.9 mph - 0.01 in Rain Light Rain
2:14 AM 66.2 °F 64.4 °F 94% 29.76 in 6.0 mi WNW 6.9 mph - 0.02 in Rain Light Rain
2:26 AM 64.4 °F 62.6 °F 94% 29.75 in 7.0 mi WNW 5.8 mph - 0.03 in Rain Light Rain
2:41 AM 64.4 °F 64.4 °F 100% 29.75 in 6.0 mi West 3.5 mph - 0.04 in Rain Light Rain
2:53 AM 64.9 °F 64.0 °F 97% 29.72 in 6.0 mi West 4.6 mph - 0.05 in Rain Light Rain
3:48 AM 64.4 °F 64.4 °F 100% 29.73 in 4.0 mi West 6.9 mph - 0.03 in Rain Light Rain
3:53 AM 64.9 °F 64.0 °F 97% 29.71 in 5.0 mi West 5.8 mph - 0.03 in Rain Light Rain
4:49 AM 64.4 °F 62.6 °F 94% 29.72 in 5.0 mi NW 5.8 mph - 0.06 in Rain Light Rain
4:53 AM 64.0 °F 63.0 °F 96% 29.70 in 5.0 mi WNW 5.8 mph - 0.07 in Rain Light Rain
5:00 AM 64.4 °F 62.6 °F 94% 29.72 in 5.0 mi WNW 5.8 mph - 0.00 in Rain Light Rain
5:26 AM 64.4 °F 62.6 °F 94% 29.71 in 4.0 mi Calm Calm - 0.03 in Rain Light Rain
5:35 AM 64.4 °F 62.6 °F 94% 29.71 in 3.0 mi West 5.8 mph - 0.04 in Rain Light Rain
5:42 AM 64.4 °F 62.6 °F 94% 29.72 in 6.0 mi West 9.2 mph - 0.05 in Rain Light Rain
5:51 AM 62.6 °F 62.6 °F 100% 29.72 in 6.0 mi WNW 9.2 mph - 0.05 in Rain Light Rain
5:53 AM 63.0 °F 62.1 °F 97% 29.70 in 6.0 mi West 9.2 mph - 0.05 in Rain Light Rain
6:48 AM 62.6 °F 60.8 °F 94% 29.71 in 10.0 mi WNW 6.9 mph - 0.01 in Rain Light Rain
6:53 AM 62.1 °F 60.1 °F 93% 29.69 in 10.0 mi NW 6.9 mph - 0.01 in Rain Light Rain
7:53 AM 61.0 °F 57.9 °F 90% 29.70 in 10.0 mi NW 6.9 mph - 0.00 in   Overcast
8:28 AM 60.8 °F 59.0 °F 94% 29.73 in 10.0 mi WNW 6.9 mph - N/A   Mostly Cloudy
8:53 AM 60.1 °F 57.9 °F 93% 29.71 in 10.0 mi WNW 8.1 mph - N/A   Scattered Clouds
9:53 AM 60.1 °F 57.9 °F 93% 29.73 in 10.0 mi WNW 10.4 mph - N/A   Clear
10:53 AM 62.1 °F 57.9 °F 86% 29.73 in 10.0 mi WNW 12.7 mph - N/A   Scattered Clouds
11:11 AM 62.6 °F 57.2 °F 82% 29.75 in 10.0 mi NW 13.8 mph - N/A   Mostly Cloudy
11:28 AM 62.6 °F 57.2 °F 82% 29.75 in 10.0 mi NW 13.8 mph - N/A   Overcast
11:53 AM 64.0 °F 57.0 °F 78% 29.74 in 10.0 mi NW 12.7 mph - N/A   Overcast
12:03 PM 64.4 °F 57.2 °F 77% 29.75 in 10.0 mi NNW 11.5 mph 20.7 mph N/A   Mostly Cloudy
12:53 PM 66.9 °F 55.0 °F 66% 29.73 in 10.0 mi NW 18.4 mph 24.2 mph N/A   Partly Cloudy
1:53 PM 69.1 °F 53.1 °F 57% 29.73 in 10.0 mi NW 11.5 mph - N/A   Partly Cloudy
2:53 PM 71.1 °F 51.1 °F 49% 29.73 in 10.0 mi NW 12.7 mph - N/A   Partly Cloudy
3:53 PM 72.0 °F 48.9 °F 44% 29.73 in 10.0 mi WNW 12.7 mph 24.2 mph N/A   Partly Cloudy
4:53 PM 69.1 °F 46.0 °F 44% 29.74 in 10.0 mi WNW 10.4 mph - N/A   Scattered Clouds
5:53 PM 69.1 °F 44.1 °F 40% 29.75 in 10.0 mi WNW 13.8 mph - N/A   Partly Cloudy
6:53 PM 66.9 °F 46.0 °F 47% 29.77 in 10.0 mi NW 12.7 mph - N/A   Mostly Cloudy
7:53 PM 61.0 °F 46.0 °F 58% 29.79 in 10.0 mi NW 5.8 mph - N/A   Clear
8:53 PM 59.0 °F 46.0 °F 62% 29.81 in 10.0 mi NW 8.1 mph - N/A   Clear
9:53 PM 55.9 °F 46.9 °F 72% 29.83 in 10.0 mi WNW 5.8 mph - N/A   Clear
10:53 PM 54.0 °F 48.0 °F 80% 29.85 in 10.0 mi WNW 5.8 mph - N/A   Clear
11:53 PM 53.1 °F 46.9 °F 80% 29.86 in 10.0 mi WNW 5.8 mph - N/A   Clear